TimeMST,TemperatureF,Dew PointF,Humidity,Sea Level PressureIn,VisibilityMPH,Wind Direction,Wind SpeedMPH,Gust SpeedMPH,PrecipitationIn,Events,Conditions,WindDirDegrees,DateUTC
12:53 AM,21.0,9.0,60,30.09,10.0,SW,12.7,-,N/A,,Clear,220,2013-02-12 07:53:00
1:53 AM,21.0,9.0,60,30.07,10.0,SW,16.1,-,N/A,,Clear,220,2013-02-12 08:53:00
2:53 AM,21.0,10.0,63,30.08,10.0,SW,20.7,-,N/A,,Clear,230,2013-02-12 09:53:00
3:53 AM,19.9,10.0,65,30.08,10.0,SW,15.0,-,N/A,,Clear,220,2013-02-12 10:53:00
4:53 AM,21.0,10.0,63,30.10,10.0,SW,15.0,-,N/A,,Clear,220,2013-02-12 11:53:00
5:53 AM,19.9,10.0,65,30.12,10.0,SW,13.8,-,N/A,,Clear,220,2013-02-12 12:53:00
6:53 AM,21.9,10.0,60,30.13,10.0,SW,17.3,-,N/A,,Clear,230,2013-02-12 13:53:00
7:53 AM,21.9,10.0,60,30.14,10.0,SW,18.4,-,N/A,,Partly Cloudy,230,2013-02-12 14:53:00
8:53 AM,24.1,10.9,57,30.15,10.0,SW,19.6,-,N/A,,Mostly Cloudy,230,2013-02-12 15:53:00
9:53 AM,26.1,12.0,55,30.15,10.0,SW,15.0,-,N/A,,Mostly Cloudy,220,2013-02-12 16:53:00
10:53 AM,28.0,12.9,53,30.14,10.0,SW,19.6,-,N/A,,Mostly Cloudy,220,2013-02-12 17:53:00
11:53 AM,33.1,15.1,48,30.12,10.0,WSW,17.3,-,N/A,,Partly Cloudy,240,2013-02-12 18:53:00
12:53 PM,36.0,17.1,46,30.09,10.0,SW,17.3,-,N/A,,Scattered Clouds,230,2013-02-12 19:53:00
1:53 PM,37.0,17.1,44,30.07,10.0,SW,18.4,-,N/A,,Mostly Cloudy,230,2013-02-12 20:53:00
2:53 PM,39.0,18.0,43,30.04,10.0,WSW,16.1,-,N/A,,Mostly Cloudy,250,2013-02-12 21:53:00
3:53 PM,39.0,18.0,43,30.03,10.0,WSW,18.4,-,N/A,,Mostly Cloudy,240,2013-02-12 22:53:00
4:53 PM,34.0,16.0,48,30.04,10.0,WSW,20.7,-,N/A,,Mostly Cloudy,240,2013-02-12 23:53:00
5:53 PM,33.1,15.1,48,30.06,10.0,WSW,18.4,-,N/A,,Mostly Cloudy,240,2013-02-13 00:53:00
6:53 PM,32.0,15.1,50,30.05,10.0,SW,16.1,-,N/A,,Partly Cloudy,220,2013-02-13 01:53:00
7:53 PM,28.9,12.9,51,30.04,10.0,WSW,23.0,-,N/A,,Partly Cloudy,240,2013-02-13 02:53:00
8:53 PM,28.0,12.0,51,30.02,10.0,WSW,21.9,-,N/A,,Clear,240,2013-02-13 03:53:00
9:53 PM,30.0,12.9,49,29.98,10.0,WSW,20.7,-,N/A,,Clear,250,2013-02-13 04:53:00
10:53 PM,28.9,12.0,49,29.98,10.0,SW,23.0,-,N/A,,Clear,230,2013-02-13 05:53:00
11:53 PM,28.9,14.0,54,29.94,10.0,SW,16.1,-,N/A,,Clear,220,2013-02-13 06:53:00